Fort Wayne, IN

7:33 PM EST on November 11, 2019 (GMT -0500)
Fort Wayne International

Weather History for KFWA - September, 2019

Change the Weather History Date:

Wednesday, September 25, 2019

  Actual Average Record
Temperature  
Mean Temperature 65 °F 60 °F  
Max Temperature 76 °F 72 °F 92 °F (1908)
Min Temperature 54 °F 49 °F 32 °F (1942)
Degree Days  
Heating Degree Days 0 6  
Month to date heating degree days 11 69  
Since 1 July heating degree days 12 81  
Cooling Degree Days 0 1  
Month to date cooling degree days 115 76  
Year to date cooling degree days 953 793  
Growing Degree Days 14 (Base 50)    
Moisture  
Dew Point 56 °F    
Average Humidity 70    
Maximum Humidity 93    
Minimum Humidity 46    
Precipitation  
Precipitation T in 0.09 in 1.45 in (2005)
Month to date precipitation 1.19 2.35  
Year to date precipitation 29.46 29.19  
Sea Level Pressure  
Sea Level Pressure 29.82 in    
Wind  
Wind Speed 9 mph (SW)    
Max Wind Speed 22 mph    
Max Gust Speed 30 mph    
Visibility 10 miles    
Events Rain    
T = Trace of Precipitation, MM = Missing Value Source: NWS Daily Summary

Daily Weather History Graph

Daily Weather History Graph

Search for Another Location

Airport or City:

Astronomy

Sep. 25, 2019 Rise Set
Actual Time 7:31 AM EDT 7:33 PM EDT
Civil Twilight 7:03 AM EDT 8:00 PM EDT
Nautical Twilight 6:31 AM EDT 8:32 PM EDT
Astronomical Twilight 5:59 AM EDT 9:05 PM EDT
Moon 3:21 AM EDT (9/25) 6:06 PM EDT (9/25)
Length of Visible Light 12h 56m
Length of Day
12h 02m
Waning Crescent, 14% of the Moon is Illuminated
Sep 25
Waning Crescent
Sep 28
New
Oct 5
First Quarter
Oct 13
Full
Oct 21
Last Quarter

Hourly Weather History & Observations

Time (EDT) Temp. Dew Point Humidity Pressure Visibility Wind Dir Wind Speed Gust Speed Precip Events Conditions
12:54 AM 59.0 °F 55.9 °F 90% 29.87 in 10.0 mi SW 5.8 mph - N/A   Partly Cloudy
1:54 AM 57.9 °F 55.0 °F 90% 29.88 in 10.0 mi SW 4.6 mph - N/A   Partly Cloudy
2:54 AM 57.0 °F 54.0 °F 89% 29.88 in 10.0 mi SW 5.8 mph - N/A   Scattered Clouds
3:54 AM 55.0 °F 53.1 °F 93% 29.86 in 10.0 mi South 6.9 mph - N/A   Scattered Clouds
4:54 AM 55.9 °F 53.1 °F 90% 29.85 in 10.0 mi South 4.6 mph - N/A   Scattered Clouds
5:54 AM 54.0 °F 52.0 °F 93% 29.84 in 10.0 mi Calm Calm - N/A   Scattered Clouds
6:54 AM 55.0 °F 53.1 °F 93% 29.85 in 10.0 mi South 6.9 mph - N/A   Scattered Clouds
7:54 AM 59.0 °F 54.0 °F 83% 29.84 in 10.0 mi South 10.4 mph - N/A   Mostly Cloudy
8:54 AM 61.0 °F 54.0 °F 78% 29.84 in 10.0 mi SSW 10.4 mph - N/A   Mostly Cloudy
9:54 AM 64.0 °F 54.0 °F 70% 29.84 in 10.0 mi SSW 11.5 mph - N/A   Overcast
10:54 AM 68.0 °F 55.0 °F 63% 29.82 in 10.0 mi SSW 12.7 mph - N/A   Mostly Cloudy
11:54 AM 70.0 °F 51.1 °F 51% 29.81 in 10.0 mi SSW 16.1 mph 28.8 mph N/A   Mostly Cloudy
12:54 PM 75.9 °F 53.1 °F 45% 29.80 in 10.0 mi SW 17.3 mph 28.8 mph N/A   Mostly Cloudy
1:54 PM 73.0 °F 53.1 °F 49% 29.80 in 10.0 mi SW 16.1 mph 25.3 mph 0.00 in Rain Light Rain
2:54 PM 75.0 °F 55.9 °F 51% 29.78 in 10.0 mi SW 17.3 mph 25.3 mph 0.00 in   Overcast
3:54 PM 75.9 °F 57.0 °F 52% 29.76 in 10.0 mi SW 15.0 mph 23.0 mph N/A   Mostly Cloudy
4:54 PM 73.9 °F 57.0 °F 55% 29.77 in 10.0 mi SW 12.7 mph - N/A   Mostly Cloudy
5:54 PM 73.0 °F 57.9 °F 59% 29.78 in 10.0 mi SW 12.7 mph 21.9 mph N/A   Mostly Cloudy
6:54 PM 72.0 °F 60.1 °F 66% 29.77 in 10.0 mi SW 5.8 mph - N/A   Partly Cloudy
7:54 PM 66.9 °F 60.1 °F 79% 29.79 in 10.0 mi WSW 6.9 mph - N/A   Partly Cloudy
8:54 PM 64.9 °F 60.1 °F 84% 29.81 in 10.0 mi SW 5.8 mph - N/A   Partly Cloudy
9:54 PM 64.0 °F 60.1 °F 87% 29.81 in 10.0 mi SW 5.8 mph - N/A   Scattered Clouds
10:54 PM 63.0 °F 60.1 °F 90% 29.81 in 10.0 mi SW 5.8 mph - N/A   Mostly Cloudy
11:54 PM 64.9 °F 61.0 °F 87% 29.81 in 10.0 mi SW 6.9 mph - N/A   Overcast